Litchfield, MN

4:55 AM CST on December 03, 2016 (GMT -0600)
Litchfield Municipal

Weather History for KLJF - January, 2012

Change the Weather History Date:

Tuesday, January 3, 2012

  Actual Average Record
Temperature  
Mean Temperature 17 °F -  
Max Temperature 26 °F 21 °F 42 °F (1962)
Min Temperature 8 °F 2 °F -18 °F (1968)
Degree Days  
Heating Degree Days 48    
Moisture  
Dew Point 12 °F    
Average Humidity 82    
Maximum Humidity 93    
Minimum Humidity 68    
Precipitation  
Precipitation 0.00 in - - ()
Sea Level Pressure  
Sea Level Pressure 30.08 in    
Wind  
Wind Speed 5 mph (SSE)    
Max Wind Speed 14 mph    
Max Gust Speed 22 mph    
Visibility 10 miles    
Events      
Averages and records for this station are not official NWS values.
T = Trace of Precipitation, MM = Missing Value Source: NWS Daily Summary

Daily Weather History Graph

Daily Weather History Graph

Search for Another Location

Airport or City:

Trip Planner

Search our weather history database for the weather conditions in past years. The results will help you decide how hot, cold, wet, or windy it might be!

Date:

Astronomy

Jan. 03, 2012 Rise Set
Actual Time 7:56 AM CST 4:48 PM CST
Civil Twilight 7:23 AM CST 5:21 PM CST
Nautical Twilight 6:45 AM CST 5:59 PM CST
Astronomical Twilight 6:10 AM CST 6:34 PM CST
Moon 12:40 PM CST 2:43 AM CST
Length of Visible Light 9h 58m
Length of Day
8h 51m
Waxing Gibbous, 73% of the Moon is Illuminated
Jan 3
Waxing Gibbous
Jan 9
Full
Jan 16
Last Quarter
Jan 23
New
Jan 30
First Quarter

Hourly Weather History & Observations

Time (CST) Temp. Windchill Dew Point Humidity Pressure Visibility Wind Dir Wind Speed Gust Speed Precip Events Conditions
12:13 AM 10.4 °F - 8.6 °F 92% 30.41 in 10.0 mi Calm Calm - N/A   Clear
12:33 AM 10.4 °F - 6.8 °F 85% 30.40 in 10.0 mi Calm Calm - N/A   Clear
12:53 AM 8.6 °F - 6.8 °F 92% 30.38 in 10.0 mi Calm Calm - N/A   Clear
1:13 AM 10.4 °F 2.2 °F 8.6 °F 92% 30.37 in 10.0 mi SSE 4.6 mph - N/A   Clear
1:33 AM 10.4 °F - 8.6 °F 92% 30.37 in 10.0 mi Calm Calm - N/A   Clear
1:53 AM 8.6 °F - 6.8 °F 92% 30.35 in 10.0 mi Calm Calm - N/A   Clear
2:13 AM 8.6 °F 2.0 °F 6.8 °F 92% 30.35 in 10.0 mi SSE 3.5 mph - N/A   Clear
2:33 AM 8.6 °F 2.0 °F 6.8 °F 92% 30.34 in 10.0 mi SSE 3.5 mph - N/A   Clear
2:53 AM 10.4 °F 2.2 °F 6.8 °F 85% 30.32 in 10.0 mi SSE 4.6 mph - N/A   Clear
3:13 AM 10.4 °F 2.2 °F 6.8 °F 85% 30.31 in 10.0 mi SSE 4.6 mph - N/A   Clear
3:33 AM 10.4 °F 2.2 °F 6.8 °F 85% 30.29 in 10.0 mi SSE 4.6 mph - N/A   Clear
3:53 AM 10.4 °F 2.2 °F 6.8 °F 85% 30.28 in 10.0 mi SSE 4.6 mph - N/A   Clear
4:13 AM 10.4 °F 0.8 °F 6.8 °F 85% 30.26 in 10.0 mi SSE 5.8 mph - N/A   Clear
4:33 AM 10.4 °F -0.4 °F 6.8 °F 85% 30.24 in 10.0 mi SSE 6.9 mph - N/A   Clear
4:53 AM 10.4 °F 0.8 °F 6.8 °F 85% 30.22 in 10.0 mi SSE 5.8 mph - N/A   Clear
5:13 AM 10.4 °F 0.8 °F 6.8 °F 85% 30.21 in 10.0 mi SSE 5.8 mph - N/A   Clear
5:33 AM 10.4 °F 0.8 °F 6.8 °F 85% 30.20 in 10.0 mi SSE 5.8 mph - N/A   Clear
5:53 AM 10.4 °F -0.4 °F 8.6 °F 92% 30.19 in 10.0 mi SSE 6.9 mph - N/A   Clear
6:13 AM 10.4 °F -0.4 °F 8.6 °F 92% 30.17 in 10.0 mi SSE 6.9 mph - N/A   Clear
6:53 AM 12.2 °F 1.7 °F 8.6 °F 85% 30.16 in 10.0 mi SSE 6.9 mph - N/A   Clear
7:13 AM 12.2 °F 0.7 °F 8.6 °F 85% 30.15 in 10.0 mi SSE 8.1 mph - N/A   Clear
7:33 AM 12.2 °F 0.7 °F 8.6 °F 85% 30.13 in 10.0 mi SSE 8.1 mph - N/A   Clear
7:53 AM 12.2 °F -1.8 °F 8.6 °F 85% 30.10 in 10.0 mi SSE 11.5 mph 16.1 mph N/A   Clear
8:13 AM 12.2 °F -1.0 °F 8.6 °F 85% 30.08 in 10.0 mi SSE 10.4 mph 16.1 mph N/A   Clear
8:33 AM 14.0 °F -0.2 °F 8.6 °F 79% 30.07 in 10.0 mi SSE 12.7 mph 19.6 mph N/A   Clear
8:53 AM 14.0 °F -0.2 °F 8.6 °F 79% 30.05 in 10.0 mi SSE 12.7 mph 20.7 mph N/A   Clear
9:13 AM 15.8 °F 5.1 °F 8.6 °F 73% 30.06 in 10.0 mi SSE 8.1 mph 19.6 mph N/A   Clear
9:33 AM 15.8 °F 3.4 °F 10.4 °F 79% 30.05 in 10.0 mi SSE 10.4 mph 19.6 mph N/A   Clear
9:53 AM 15.8 °F 1.4 °F 8.6 °F 73% 30.02 in 10.0 mi SSE 13.8 mph 21.9 mph N/A   Clear
10:13 AM 17.6 °F 8.2 °F 10.4 °F 73% 30.04 in 10.0 mi South 6.9 mph 16.1 mph N/A   Clear
10:33 AM 17.6 °F 8.2 °F 10.4 °F 73% 30.04 in 10.0 mi SSE 6.9 mph - N/A   Clear
10:53 AM 17.6 °F 5.7 °F 10.4 °F 73% 30.00 in 10.0 mi SSE 10.4 mph 17.3 mph N/A   Clear
11:13 AM 19.4 °F 9.5 °F 10.4 °F 68% 29.98 in 10.0 mi SSE 8.1 mph 21.9 mph N/A   Clear
11:33 AM 19.4 °F 7.9 °F 12.2 °F 74% 29.96 in 10.0 mi SSE 10.4 mph 17.3 mph N/A   Clear
11:53 AM 19.4 °F 7.9 °F 12.2 °F 74% 29.95 in 10.0 mi SSE 10.4 mph 16.1 mph N/A   Clear
12:13 PM 19.4 °F 9.5 °F 14.0 °F 80% 29.94 in 10.0 mi South 8.1 mph - N/A   Clear
12:33 PM 21.2 °F 12.6 °F 15.8 °F 80% 29.93 in 10.0 mi SSE 6.9 mph - N/A   Clear
12:53 PM 23.0 °F 15.8 °F 15.8 °F 74% 29.93 in 10.0 mi SSE 5.8 mph - N/A   Clear
1:13 PM 23.0 °F 18.4 °F 15.8 °F 74% 29.91 in 10.0 mi South 3.5 mph - N/A   Clear
1:33 PM 24.8 °F 17.9 °F 17.6 °F 74% 29.90 in 10.0 mi South 5.8 mph - N/A   Clear
1:53 PM 24.8 °F 16.1 °F 17.6 °F 74% 29.89 in 10.0 mi South 8.1 mph - N/A   Clear
2:13 PM 26.6 °F 19.1 °F 19.4 °F 74% 29.87 in 10.0 mi South 6.9 mph - N/A   Clear
2:33 PM 26.6 °F 21.2 °F 19.4 °F 74% 29.88 in 10.0 mi SSE 4.6 mph - N/A   Clear
2:53 PM 26.6 °F 22.6 °F 19.4 °F 74% 29.87 in 10.0 mi SSE 3.5 mph - N/A   Clear
3:13 PM 26.6 °F 21.2 °F 19.4 °F 74% 29.87 in 10.0 mi South 4.6 mph - N/A   Clear
3:34 PM 26.6 °F 21.2 °F 21.2 °F 80% 29.86 in 10.0 mi South 4.6 mph - N/A   Clear
3:53 PM 26.6 °F 21.2 °F 21.2 °F 80% 29.88 in 10.0 mi South 4.6 mph - N/A   Clear
4:13 PM 24.8 °F 20.5 °F 21.2 °F 86% 29.86 in 10.0 mi SSE 3.5 mph - N/A   Clear
4:34 PM 24.8 °F 19.1 °F 21.2 °F 86% 29.85 in 10.0 mi SSE 4.6 mph - N/A   Clear
4:53 PM 24.8 °F 19.1 °F 21.2 °F 86% 29.85 in 10.0 mi SSE 4.6 mph - N/A   Clear
5:13 PM 24.8 °F - 21.2 °F 86% 29.84 in 10.0 mi Calm Calm - N/A   Clear
5:34 PM 23.0 °F 18.4 °F 21.2 °F 93% 29.85 in 10.0 mi SSW 3.5 mph - N/A   Clear
5:53 PM 24.8 °F - 21.2 °F 86% 29.83 in 10.0 mi Calm Calm - N/A   Clear
6:13 PM 24.8 °F 20.5 °F 21.2 °F 86% 29.85 in 10.0 mi SSW 3.5 mph - N/A   Clear
6:33 PM 23.0 °F 18.4 °F 21.2 °F 93% 29.84 in 10.0 mi SSW 3.5 mph - N/A   Clear
6:53 PM 24.8 °F 20.5 °F 21.2 °F 86% 29.85 in 10.0 mi SW 3.5 mph - N/A   Clear
7:13 PM 24.8 °F 20.5 °F 21.2 °F 86% 29.85 in 10.0 mi South 3.5 mph - N/A   Clear
7:33 PM 24.8 °F - 21.2 °F 86% 29.83 in 10.0 mi Calm Calm - N/A   Clear
7:53 PM 23.0 °F 18.4 °F 21.2 °F 93% 29.83 in 10.0 mi SSW 3.5 mph - N/A   Clear
8:13 PM 24.8 °F - 21.2 °F 86% 29.83 in 10.0 mi Calm Calm - N/A   Clear
8:34 PM 23.0 °F - 21.2 °F 93% 29.83 in 10.0 mi Calm Calm - N/A   Clear
8:53 PM 24.8 °F 20.5 °F 21.2 °F 86% 29.83 in 10.0 mi SW 3.5 mph - N/A   Clear
9:13 PM 24.8 °F 20.5 °F 21.2 °F 86% 29.84 in 10.0 mi WSW 3.5 mph - N/A   Clear
9:53 PM 26.6 °F 19.1 °F 23.0 °F 86% 29.84 in 10.0 mi West 6.9 mph - N/A   Clear
10:13 PM 28.4 °F 21.2 °F 23.0 °F 80% 29.85 in 10.0 mi West 6.9 mph - N/A   Clear
10:34 PM 30.2 °F 20.8 °F 24.8 °F 80% 29.86 in 10.0 mi WNW 11.5 mph - N/A   Clear
10:53 PM 30.2 °F 21.9 °F 24.8 °F 80% 29.87 in 10.0 mi WNW 9.2 mph 16.1 mph N/A   Clear
11:13 PM 30.2 °F 21.3 °F 24.8 °F 80% 29.87 in 10.0 mi NW 10.4 mph - N/A   Clear
11:33 PM 30.2 °F 22.6 °F 24.8 °F 80% 29.88 in 10.0 mi NW 8.1 mph - N/A   Clear
11:53 PM 30.2 °F 20.8 °F 24.8 °F 80% 29.90 in 10.0 mi NW 11.5 mph - N/A   Clear